Regional Weather Roundup
Issued by NWS Green Bay, WI

Home | Current Version | Previous Version | Text Only | Print | Product List | Glossary On
Versions: 1 2 3 4 5 6 7 8 9 10 11 12 13 14 15 16 17 18 19 20 21 22 23 24 25 26 27 28 29 30 31 32 33 34 35 36 37 38 39 40 41 42 43 44 45 46 47 48 49 50
000
ASUS43 KGRB 231410
RWRGRB

NORTH-CENTRAL AND NORTHEAST WISCONSIN REGIONAL WEATHER ROUNDUP
NATIONAL WEATHER SERVICE GREEN BAY WI
900 AM CDT SAT AUG 23 2014

WIZ005-009-010>012-018-019-231500-
NORTH CENTRAL WISCONSIN

CITY           SKY/WX    TMP DP  RH WIND       PRES   REMARKS
IRONWOOD       NOT AVBL
MANITOWISH WTR CLOUDY    65  65 100 N3        30.06S
ARBOR VITAE    CLOUDY    72  70  93 CALM      30.06S
EAGLE RIVER    CLOUDY    68  68 100 CALM      30.06S
LAND O LAKES   FOG       67  67 100 CALM      30.08R VSB 3/4
RHINELANDER    CLOUDY    69  68  96 NE5       30.06R FOG
PHILLIPS       CLOUDY    66  66 100 CALM      30.05R
ANTIGO         CLOUDY    67  67 100 E3        30.06R FOG
TOMAHAWK       CLOUDY    69  68  96 CALM      30.06R FOG
MERRILL        FOG       70  70 100 CALM      30.04R VSB 3/4
$$

WIZ013-073-231500-
NORTHEAST WISCONSIN

CITY           SKY/WX    TMP DP  RH WIND       PRES   REMARKS
IRON MOUNTAIN  CLOUDY    68  66  93 SE5       30.05R FOG
MARINETTE      CLOUDY    70  64  83 SE8       30.03R
OCONTO         CLOUDY    70  70  98 E5        30.02F
$$

WIZ017-030-035>037-045-231500-
CENTRAL WISCONSIN

CITY           SKY/WX    TMP DP  RH WIND       PRES   REMARKS
MEDFORD        FOG       69  69 100 NE5       30.05R VSB 1
WAUSAU         FOG       70  69  97 E7        30.02R VSB 3/4
MOSINEE        FOG       70  70 100 E3        30.04R VSB 1/2
MARSHFIELD     FOG       71  70  96 E6        30.03R VSB 3/4
WISC RAPIDS    CLOUDY    71  70  96 SE6       30.03R FOG
STEVENS POINT  FOG       69  68  99 E5        30.03R VSB 1
WAUPACA        FOG       72  70  95 E3        30.02R VSB 1/2
SHAWANO        FOG       71  69  94 E6        30.03S VSB 1/2
CLINTONVILLE   FOG       68  68 100 E3        30.02S VSB 1/4
$$

WIZ038-039-048-051-231500-
FOX VALLEY

CITY           SKY/WX    TMP DP  RH WIND       PRES   REMARKS
NWS GREEN BAY  CLOUDY    71  70  96 E3        30.02S FOG
APPLETON         N/A     70  70 100 VRB5      30.03S FOG
OSHKOSH        CLOUDY    73  71  93 SE6       30.01R FOG
FOND DU LAC    CLOUDY    73  70  90 SE8       30.01S
$$

WIZ022-050-052-231500-
EAST CENTRAL WISCONSIN

CITY           SKY/WX    TMP DP  RH WIND       PRES   REMARKS
STURGEON BAY   CLOUDY    66  63  88 SE7       30.05R
MANITOWOC      PTSUNNY   71  67  87 S10       30.03R
SHEBOYGAN      CLOUDY    72  68  87 SE6       30.02F
$$

LMZ563-521-522-541>543-231500-
LAKESHORE

STATION/POSITION TIME  TEMP    WIND        PRES    VSBY  WAVE
                       AIR SEA DIR/SP/G                  HT/PER
                 (UTC) (F)     (DEG/KT/KT) (MB)    (MI)  (FT/S)
SHEBOYGAN LKSHOR 1400   68 66  110/  4/  4 1016.9F
KEWAUNEE LKSHORE 1400   69     110/  3/  5 1016.2R
NORTHPORT PIER   1400   68     150/  7/  8 1017.3S
N MID LAKE BUOY  1400   67 65  110/  8/ 10 1017.0R         1
S GREEN BAY BUOY 1300   70     VRB  2      1017.7R
SISTER BAY LKSHO 1300   75     150/  9/ 11   N/A
CHAMBERS ISLAND  1400   69     120/  4/  7 1017.6R
MENOMINEE LKSHOR 1400   69     120/  6/  8 1017.7F
$$


USA.gov is the U.S. government's official web portal to all federal, state and local government web resources and services.